Hourly Data Report for October 27, 2013

All times are specified in Local Standard Time (LST). Add 1 hour to adjust for Daylight Saving Time where and when it is observed.

PETAWAWA AWOS 2
ONTARIO

45°57'00.000" N
77°19'00.000" W
130.10 m
6106396
71625
YWA

Download Data

Hourly Data (October 2013)
Hourly Data Report for October 27, 2013
Temp Definition
°C
Dew Point Temp Definition
°C
Rel Hum Definition
%
Wind Dir Definition
10's deg

Wind Spd Definition
km/h
Visibility Definition
km
Stn Press Definition
kPa
Hmdx Definition


Wind Chill Definition


Weather Definition


TIME
00:00 4.2 3.2 93 29 11 15.0 99.00     Rain
01:00 3.7 2.3 91 27 11 15.0 99.08      
02:00 3.4 2.1 91 27 13 15.0 99.16     Rain
03:00 3.1 1.6 90 27 9 15.0 99.18      
04:00 2.9 1.4 90 28 15 15.0 99.26      
05:00 2.8 1.1 89 30 7 15.0 99.36      
06:00 2.0 -0.5 83 28 9 15.0 99.46      
07:00 0.9 -0.6 90 26 7 15.0 99.54      
08:00 2.3 0.1 85 25 9 15.0 99.60      
09:00 3.1 0.6 84 27 9 15.0 99.66      
10:00 3.4 -0.2 77 25 9 15.0 99.70      
11:00 3.9 -1.5 68 28 13 15.0 99.75      
12:00 4.3 -2.5 61 30 9 15.0 99.72      
13:00 4.8 -3.6 54 27 13 15.0 99.72      
14:00 4.9 -2.7 58 26 9 15.0 99.74      
15:00 5.1 -3.0 56 28 13 15.0 99.76      
16:00 5.0 -3.1 56 27 7 15.0 99.79      
17:00 3.3 -1.2 72   0 15.0 99.79      
18:00 1.9 -1.8 76 19 4 15.0 99.82      
19:00 1.5 -1.0 83 17 4 15.0 99.83      
20:00 2.5 -1.9 73 18 6 15.0 99.83      
21:00 2.5 -1.3 76 17 4 15.0 99.85      
22:00 2.7 -1.5 74 18 4 15.0 99.85      
23:00 3.2 -0.9 74   0 15.0 99.80     Rain

Notes on Data Quality.

Legend

  • E = Estimated
  • M = Missing
  • NA = Not Available
  • ‡ = Partner data that is not subject to review by the National Climate Archives
Date modified: